Regional Weather Roundup
Issued by NWS

Home | Current Version | Previous Version | Graphics & Text | Print | Product List | Glossary On
Versions: 1 2 3 4 5 6 7 8 9 10 11 12 13 14 15 16 17 18 19 20 21 22 23 24 25 26 27 28 29 30 31 32 33 34 35 36 37 38 39 40 41 42 43 44 45 46 47 48 49 50
000
ASUS44 KMEG 220910
RWRTN
TENNESSEE HOURLY STATE WEATHER ROUNDUP
NATIONAL WEATHER SERVICE MEMPHIS TN
400 AM CDT SUN OCT 22 2017

TNZ002-004-019-021-049-052-054-088>092-221000-
WEST TENNESSEE

CITY           SKY/WX    TMP DP  RH WIND       PRES   REMARKS
MEMPHIS INTL   CLOUDY    71  64  78 SE10      30.00S
NWS MEMPHIS      N/A     71 N/A N/A MISG        N/A
JACKSON        MOCLDY    69  62  78 S8        30.04F
DYERSBURG        N/A     69  63  81 SE9       30.01F
SOMERVILLE     CLOUDY    72  63  73 S8G16     30.02S
COVINGTON      CLOUDY    72  63  73 S10       30.01S
UNION CITY     MOCLDY    70  63  78 S9G16     30.01S
BOLIVAR        CLOUDY    68  63  83 SE8G15    30.04S
HUNTINGDON     CLOUDY    68  61  77 S8        30.05R
SELMER         PTCLDY    66  61  82 S10       30.06R
SAVANNAH       MOCLDY    66  61  82 S9        30.06F
$$

TNZ008-025-027-028-033-062-065-066-221000-
NORTH MIDDLE TENNESSEE

CITY           SKY/WX    TMP DP  RH WIND       PRES   REMARKS
NASHVILLE      MOCLDY    63  54  72 SE7       30.14F
PORTLAND       CLEAR     64  52  63 S8        30.13F
CLARKSVILLE    CLOUDY    62  54  74 SE7       30.09F
SMYRNA         MOCLDY    55  53  93 CALM      30.15F
COOKEVILLE     MOCLDY    63  50  63 S6        30.18F
GALLATIN       CLEAR     61  52  72 E5        30.17F
CROSSVILLE     CLOUDY    60  47  61 S6        30.23F
$$

TNZ061-075-076-078-094-096-097-221000-
SOUTH MIDDLE TENNESSEE

CITY           SKY/WX    TMP DP  RH WIND       PRES   REMARKS
FAYETTEVILLE   CLEAR     63  52  67 SE8       30.14F
TULLAHOMA      CLEAR     63  46  55 S13       30.17F
WINCHESTER     CLEAR     63  52  67 S8          N/A
COLUMBIA       CLEAR     66  55  68 VRB7      30.10F
SHELBYVILLE    CLEAR     63  52  67 SE7       30.14F
$$

TNZ017-018-042-046-047-221000-
NORTHEAST TENNESSEE

CITY           SKY/WX    TMP DP  RH WIND       PRES   REMARKS
TRI CITIES     PTCLDY    46  46 100 CALM      30.29S
ELIZABETHTON   CLEAR     54  48  82 CALM      30.29F
$$

TNZ012-013-036-069-073-074-221000-
CENTRAL EAST TENNESSEE

CITY           SKY/WX    TMP DP  RH WIND       PRES   REMARKS
KNOXVILLE      PTCLDY    50  50 100 CALM      30.24S
OAK RIDGE      PTCLDY    50  50 100 CALM      30.26S
DOWNTOWN KNOXV FOG       50  50 100 CALM      30.26S VSB 0
GATLINBURG     PTCLDY    46  45  93 CALM      30.26S
MORRISTOWN     CLEAR     52  46  82 CALM      30.25F
JACKSBORO      FOG       46  46 100 CALM      30.28F VSB 1/4
$$

TNZ083-085-099-221000-
SOUTHEAST TENNESSEE

CITY           SKY/WX    TMP DP  RH WIND       PRES   REMARKS
CHATTANOOGA    CLOUDY    53  50  89 NW3       30.22F
DAYTON         SUNNY     50  50 100 CALM      30.22F
$$

SKY/WX REPORTED AS FAIR MEANS FEW OR NO CLOUDS BELOW
12 THOUSAND FEET.




USA.gov is the U.S. government's official web portal to all federal, state and local government web resources and services.